M I D A S
Marine Information and Data Acquisition System
Tripno 2316 of the Zeeleeuw from 2012-05-21 08:23:06 to 2012-05-21 13:44:45
Back to CruiseResearch ActivitiesStationsMapUnderway DataData graphs

EquipmentUnitsComments
TimeDGPSUTC
LatitudeDGPSDM.mWGS84
LongitudeDGPSDM.mWGS84
SpeedMeteo Stationm/sRelative wind speed
DirectionMeteo StationdegRelative wind direction
TemperatureMeteo Stationdeg CelciusAir temperature
PressureMeteo StationPaAtmospheric pressure
HumidityMeteo Station%Relative humidity
Missing or incorrect values are displayed as -999
Metereological data collected by the RV Zeeleeuw from 2012-05-21 06:07:44 to 2012-05-21 13:58:18
Time Latitude Longitude Speed Direction Temperature Pressure Humidity
2012-05-21 06:08 51°13.636 2°56.018 -999 268 9.2 100490 43
2012-05-21 06:09 51°13.638 2°56.017 -999 256 9.2 100490 43
2012-05-21 06:10 51°13.64 2°56.019 -999 270 9.1 100490 43
2012-05-21 06:11 51°13.64 2°56.02 -999 269 9.1 100490 43
2012-05-21 06:12 51°13.64 2°56.02 -999 24 9.2 100490 43
2012-05-21 06:13 51°13.639 2°56.02 -999 262 9.1 100490 43
2012-05-21 06:14 51°13.639 2°56.02 -999 268 9.2 100490 43
2012-05-21 06:15 51°13.638 2°56.02 -999 24 9.2 100490 43
2012-05-21 06:16 51°13.638 2°56.019 -999 23 9.1 100490 43
2012-05-21 06:17 51°13.638 2°56.019 -999 267 9.1 100500 42
2012-05-21 06:18 51°13.637 2°56.019 -999 23 9.2 100500 43
2012-05-21 06:19 51°13.637 2°56.019 -999 23 9.1 100490 43
2012-05-21 06:20 51°13.636 2°56.019 -999 23 9.1 100490 43
2012-05-21 06:21 51°13.636 2°56.019 -999 23 9.1 100490 43
2012-05-21 06:22 51°13.636 2°56.018 -999 23 9.1 100490 43
2012-05-21 06:23 51°13.635 2°56.018 -999 24 9.1 100490 43
2012-05-21 06:24 51°13.635 2°56.018 -999 23 9.1 100490 43
2012-05-21 06:25 51°13.635 2°56.018 -999 24 9.1 100490 43
2012-05-21 06:26 51°13.636 2°56.018 -999 23 9.1 100490 43
2012-05-21 06:27 51°13.636 2°56.019 -999 256 9.1 100490 43
2012-05-21 06:28 51°13.635 2°56.018 -999 24 9.1 100490 44
2012-05-21 06:29 51°13.635 2°56.018 -999 265 9.2 100500 43
2012-05-21 06:30 51°13.636 2°56.018 -999 24 9.2 100500 43
2012-05-21 06:31 51°13.636 2°56.018 -999 24 9.2 100500 43
2012-05-21 06:32 51°13.636 2°56.018 -999 263 9.2 100500 43
2012-05-21 06:33 51°13.636 2°56.018 -999 255 9.2 100500 43
2012-05-21 06:34 51°13.634 2°56.017 -999 23 9.2 100500 43
2012-05-21 06:35 51°13.636 2°56.017 -999 23 9.2 100500 43
2012-05-21 06:36 51°13.636 2°56.017 -999 25 9.2 100500 43
2012-05-21 06:37 51°13.636 2°56.016 -999 260 9.2 100500 43
2012-05-21 06:38 51°13.635 2°56.017 -999 28 9.2 100510 43
2012-05-21 06:39 51°13.635 2°56.018 -999 26 9.2 100510 43
2012-05-21 06:40 51°13.635 2°56.019 -999 24 9.1 100510 43
2012-05-21 06:41 51°13.635 2°56.019 -999 261 9.2 100500 43
2012-05-21 06:42 51°13.635 2°56.019 -999 23 9.2 100500 43
2012-05-21 06:43 51°13.635 2°56.019 -999 259 9.2 100500 43
2012-05-21 06:44 51°13.635 2°56.019 -999 27 9.2 100500 43
2012-05-21 06:45 51°13.636 2°56.019 -999 21 9.2 100500 43
2012-05-21 06:46 51°13.636 2°56.019 -999 23 9.2 100500 43
2012-05-21 06:47 51°13.635 2°56.019 -999 262 9.2 100500 43
2012-05-21 06:48 51°13.635 2°56.019 -999 25 9.2 100500 43
2012-05-21 06:49 51°13.635 2°56.019 -999 265 9.2 100500 43
2012-05-21 06:50 51°13.634 2°56.019 -999 266 9.2 100500 43
2012-05-21 06:51 51°13.634 2°56.019 -999 26 9.3 100500 43
2012-05-21 06:52 51°13.634 2°56.019 -999 13 9.2 100500 43
2012-05-21 06:53 51°13.634 2°56.02 -999 23 9.2 100500 43
2012-05-21 06:54 51°13.635 2°56.019 -999 24 9.1 100500 43
2012-05-21 06:55 51°13.635 2°56.019 -999 23 9.2 100500 43
2012-05-21 06:56 51°13.636 2°56.019 -999 23 9.2 100490 42
2012-05-21 06:57 51°13.637 2°56.019 -999 25 9.3 100490 43
2012-05-21 06:58 51°13.637 2°56.019 -999 24 9.3 100490 44
2012-05-21 06:59 51°13.637 2°56.018 -999 265 9.3 100490 43
2012-05-21 07:00 51°13.637 2°56.019 -999 24 9.2 100480 43
2012-05-21 07:01 51°13.637 2°56.019 -999 24 9.2 100480 43
2012-05-21 07:02 51°13.638 2°56.019 -999 23 9.2 100480 43
2012-05-21 07:03 51°13.638 2°56.021 -999 23 9.2 100480 43
2012-05-21 07:04 51°13.638 2°56.019 -999 24 9.2 100490 43
2012-05-21 07:05 51°13.638 2°56.019 -999 24 9.2 100480 43
2012-05-21 07:06 51°13.638 2°56.019 -999 23 9.1 100490 43
2012-05-21 07:07 51°13.638 2°56.019 -999 23 9.1 100490 43
2012-05-21 07:08 51°13.637 2°56.018 -999 23 9.2 100480 43
2012-05-21 07:09 51°13.637 2°56.019 -999 24 9.2 100480 44
2012-05-21 07:10 51°13.637 2°56.019 -999 23 9.2 100480 43
2012-05-21 07:11 51°13.635 2°56.019 -999 19 9.2 100470 43
2012-05-21 07:12 51°13.634 2°56.019 -999 23 9.2 100470 43
2012-05-21 07:13 51°13.635 2°56.019 -999 23 9.2 100470 43
2012-05-21 07:14 51°13.634 2°56.019 -999 23 9.3 100460 43
2012-05-21 07:15 51°13.634 2°56.019 -999 24 9.2 100470 43
2012-05-21 07:16 51°13.635 2°56.018 -999 270 9.2 100470 43
2012-05-21 07:17 51°13.636 2°56.018 -999 24 9.3 100470 43
2012-05-21 07:18 51°13.635 2°56.017 -999 23 9.3 100470 43
2012-05-21 07:19 51°13.636 2°56.017 -999 23 9.2 100470 43
2012-05-21 07:20 51°13.636 2°56.017 -999 25 9.2 100470 43
2012-05-21 07:21 51°13.636 2°56.016 -999 24 9.2 100470 43
2012-05-21 07:22 51°13.637 2°56.015 -999 23 9.2 100470 43
2012-05-21 07:23 51°13.637 2°56.016 -999 23 9.2 100470 43
2012-05-21 07:24 51°13.638 2°56.014 -999 23 9.2 100460 43
2012-05-21 07:25 51°13.638 2°56.014 -999 24 9.2 100470 43
2012-05-21 07:26 51°13.638 2°56.015 -999 23 9.2 100460 43
2012-05-21 07:27 51°13.638 2°56.015 -999 23 9.2 100460 43
2012-05-21 07:28 51°13.639 2°56.015 -999 23 9.2 100460 43
2012-05-21 07:29 51°13.639 2°56.016 -999 25 9.3 100470 43
2012-05-21 07:30 51°13.638 2°56.016 -999 26 9.3 100460 44
2012-05-21 07:31 51°13.637 2°56.018 -999 23 9.3 100470 44
2012-05-21 07:32 51°13.636 2°56.018 -999 264 9.3 100470 43
2012-05-21 07:33 51°13.637 2°56.016 -999 19 9.3 100470 43
2012-05-21 07:34 51°13.636 2°56.017 -999 25 9.3 100470 43
2012-05-21 07:35 51°13.636 2°56.018 -999 24 9.3 100480 43
2012-05-21 07:36 51°13.635 2°56.019 -999 24 9.3 100470 43
2012-05-21 07:37 51°13.635 2°56.019 -999 23 9.3 100480 43
2012-05-21 07:38 51°13.636 2°56.018 -999 23 9.3 100480 43
2012-05-21 07:39 51°13.636 2°56.018 -999 23 9.3 100480 43
2012-05-21 07:40 51°13.636 2°56.018 -999 23 9.3 100480 43
2012-05-21 07:41 51°13.636 2°56.017 -999 27 9.3 100480 43
2012-05-21 07:42 51°13.636 2°56.018 -999 26 9.4 100480 43
2012-05-21 07:43 51°13.636 2°56.021 -999 25 9.3 100480 42
2012-05-21 07:44 51°13.636 2°56.019 -999 23 9.3 100470 43
2012-05-21 07:45 51°13.638 2°56.019 -999 23 9.2 100480 43
2012-05-21 07:46 51°13.637 2°56.02 -999 23 9.3 100470 43
2012-05-21 07:47 51°13.637 2°56.019 -999 23 9.3 100470 43
2012-05-21 07:48 51°13.637 2°56.019 -999 24 9.3 100480 43
2012-05-21 07:49 51°13.637 2°56.019 -999 23 9.3 100480 43
2012-05-21 07:50 51°13.636 2°56.02 -999 24 9.3 100480 42
2012-05-21 07:51 51°13.637 2°56.018 -999 25 9.3 100480 43
2012-05-21 07:52 51°13.637 2°56.018 -999 26 9.3 100480 44
2012-05-21 07:53 51°13.636 2°56.019 -999 26 9.3 100480 43
2012-05-21 07:54 51°13.638 2°56.018 -999 263 9.3 100480 43
2012-05-21 07:55 51°13.637 2°56.018 -999 24 9.3 -999 45
2012-05-21 07:56 51°13.636 2°56.018 -999 266 9.2 100480 44
2012-05-21 07:57 51°13.636 2°56.018 -999 24 9.3 100480 44
2012-05-21 07:58 51°13.636 2°56.018 -999 25 9.3 100480 45
2012-05-21 07:59 51°13.636 2°56.018 -999 24 9.3 100480 43
2012-05-21 08:00 51°13.636 2°56.019 -999 24 9.3 100480 44
2012-05-21 08:01 51°13.636 2°56.019 -999 24 9.3 100480 44
2012-05-21 08:02 51°13.636 2°56.019 -999 23 9.3 100480 44
2012-05-21 08:03 51°13.635 2°56.02 -999 265 9.3 100480 44
2012-05-21 08:04 51°13.635 2°56.019 -999 23 9.3 100480 44
2012-05-21 08:05 51°13.635 2°56.019 -999 25 9.3 100480 44
2012-05-21 08:06 51°13.635 2°56.018 -999 24 9.4 100480 44
2012-05-21 08:07 51°13.636 2°56.018 -999 23 9.3 100480 44
2012-05-21 08:08 51°13.637 2°56.018 -999 23 9.3 100480 44
2012-05-21 08:09 51°13.636 2°56.018 -999 270 9.3 100480 44
2012-05-21 08:10 51°13.636 2°56.018 -999 23 9.3 100480 44
2012-05-21 08:11 51°13.638 2°56.016 -999 24 9.2 100480 44
2012-05-21 08:12 51°13.637 2°56.016 -999 23 9.2 100480 44
2012-05-21 08:13 51°13.638 2°56.016 -999 23 9.2 100490 43
2012-05-21 08:14 51°13.641 2°56.017 -999 23 9.2 100490 43
2012-05-21 08:15 51°13.637 2°56.017 -999 25 9.3 100490 44
2012-05-21 08:16 51°13.64 2°55.989 -999 263 9.2 100500 44
2012-05-21 08:17 51°13.662 2°55.895 -999 23 9.2 100500 44
2012-05-21 08:18 51°13.697 2°55.794 5.7 24 9.2 100510 44
2012-05-21 08:19 51°13.753 2°55.702 6.6 19 9.1 100500 43
2012-05-21 08:20 51°13.822 2°55.628 7.7 27 9.2 100510 44
2012-05-21 08:21 51°13.899 2°55.598 4.4 25 9.5 100490 43
2012-05-21 08:22 51°13.96 2°55.634 7.3 39 9.2 100490 44
2012-05-21 08:23 51°13.975 2°55.641 8.3 12 9.2 100480 43
2012-05-21 08:24 51°14.007 2°55.546 10.9 346 9.2 100470 43
2012-05-21 08:25 51°14.106 2°55.433 11 337 9.2 100480 43
2012-05-21 08:26 51°14.233 2°55.332 12.4 335 9.2 100480 43
2012-05-21 08:27 51°14.361 2°55.204 17.6 339 9.2 100480 44
2012-05-21 08:28 51°14.496 2°55.052 13.7 339 9.2 100470 43
2012-05-21 08:29 51°14.633 2°54.862 10.7 340 9.1 100470 43
2012-05-21 08:30 51°14.704 2°54.593 12.4 3 9.2 100450 43
2012-05-21 08:31 51°14.577 2°54.335 7 21 9.2 100460 44
2012-05-21 08:32 51°14.415 2°54.097 8.9 12 9.2 100470 43
2012-05-21 08:33 51°14.276 2°53.822 7.2 8 9.2 100460 44
2012-05-21 08:34 51°14.151 2°53.533 7.9 9 9.2 100450 43
2012-05-21 08:35 51°14.014 2°53.26 6.1 20 9.2 100470 43
2012-05-21 08:36 51°13.876 2°52.986 7 19 9.2 100470 44
2012-05-21 08:37 51°13.751 2°52.705 9.9 8 9.2 100470 43
2012-05-21 08:38 51°13.629 2°52.406 7.1 10 9.2 100460 44
2012-05-21 08:39 51°13.511 2°52.115 7.7 9 9.2 100460 43
2012-05-21 08:40 51°13.388 2°51.813 7.2 5 9.3 100470 43
2012-05-21 08:41 51°13.262 2°51.521 9 12 9.3 100470 44
2012-05-21 08:42 51°13.138 2°51.232 10 11 9.3 100470 44
2012-05-21 08:43 51°13.014 2°50.934 8.9 7 9.3 100460 43
2012-05-21 08:44 51°12.898 2°50.625 9.5 7 9.2 100470 42
2012-05-21 08:45 51°12.78 2°50.309 7.7 8 9.1 100470 42
2012-05-21 08:46 51°12.667 2°50.003 10.1 12 9.2 100480 43
2012-05-21 08:47 51°12.548 2°49.69 8.9 14 9.2 100480 43
2012-05-21 08:48 51°12.43 2°49.381 10 5 9.1 100470 44
2012-05-21 08:49 51°12.318 2°49.071 9.9 11 9.2 100460 43
2012-05-21 08:50 51°12.205 2°48.76 9.5 14 9.1 100470 43
2012-05-21 08:51 51°12.088 2°48.452 9.9 9 9.2 100470 43
2012-05-21 08:52 51°11.981 2°48.139 14.3 11 9.2 100460 44
2012-05-21 08:53 51°11.891 2°47.817 8.4 5 9.2 100460 44
2012-05-21 08:54 51°11.799 2°47.496 9.2 8 9.1 100460 44
2012-05-21 08:55 51°11.712 2°47.165 12.4 8 9.2 100460 44
2012-05-21 08:56 51°11.618 2°46.838 14 10 9.2 100460 44
2012-05-21 08:57 51°11.531 2°46.506 10.7 2 9.2 100460 44
2012-05-21 08:58 51°11.475 2°46.16 13.9 2 9.2 100440 44
2012-05-21 08:59 51°11.426 2°45.815 12.4 4 9.2 100440 44
2012-05-21 09:00 51°11.372 2°45.473 9.5 4 9.2 100460 43
2012-05-21 09:01 51°11.32 2°45.132 13.4 1 9.2 100430 44
2012-05-21 09:02 51°11.263 2°44.793 10 4 9.2 100450 44
2012-05-21 09:03 51°11.205 2°44.455 10 6 9.2 100460 44
2012-05-21 09:04 51°11.155 2°44.114 10.4 5 9.2 100460 44
2012-05-21 09:05 51°11.104 2°43.777 11.7 10 9.2 100450 44
2012-05-21 09:06 51°11.049 2°43.443 9.1 2 9.2 100450 43
2012-05-21 09:07 51°11.005 2°43.104 12.1 6 9.1 100430 44
2012-05-21 09:08 51°10.95 2°42.777 11 6 9.2 100440 43
2012-05-21 09:09 51°10.898 2°42.448 12.5 6 9.1 100450 42
2012-05-21 09:10 51°10.844 2°42.12 7.3 6 9.1 100440 44
2012-05-21 09:11 51°10.791 2°41.786 9.9 5 9.2 100450 44
2012-05-21 09:12 51°10.74 2°41.45 14.1 7 9.1 100440 43
2012-05-21 09:13 51°10.693 2°41.114 15.1 3 9.1 100430 44
2012-05-21 09:14 51°10.643 2°40.784 4.9 4 9.1 100440 43
2012-05-21 09:15 51°10.589 2°40.449 9.2 8 9.1 100430 43
2012-05-21 09:16 51°10.549 2°40.15 6.2 1 9.1 100440 42
2012-05-21 09:17 51°10.572 2°40.041 9.9 336 9.1 100440 43
2012-05-21 09:18 51°10.588 2°40.036 11.1 22 9.1 100440 43
2012-05-21 09:19 51°10.565 2°40.022 6.8 261 9.2 100480 44
2012-05-21 09:20 51°10.539 2°40.003 8.7 263 9.2 100490 44
2012-05-21 09:21 51°10.513 2°39.982 9.4 262 9.1 100470 44
2012-05-21 09:22 51°10.488 2°39.962 9.1 264 9.2 100480 44
2012-05-21 09:23 51°10.461 2°39.94 10.2 262 9.1 100500 44
2012-05-21 09:24 51°10.437 2°39.918 10.5 262 9.2 100490 43
2012-05-21 09:25 51°10.41 2°39.9 10.6 259 9.2 100480 43
2012-05-21 09:26 51°10.384 2°39.88 11.5 259 9.2 100480 43
2012-05-21 09:27 51°10.357 2°39.861 13.8 256 9.3 100500 44
2012-05-21 09:28 51°10.333 2°39.841 11.4 264 9.2 100490 43
2012-05-21 09:29 51°10.308 2°39.824 6.6 256 9.2 100500 43
2012-05-21 09:30 51°10.282 2°39.807 9.1 265 9.2 100480 44
2012-05-21 09:31 51°10.259 2°39.79 12.1 262 9.2 100490 43
2012-05-21 09:32 51°10.234 2°39.77 13.1 259 9.2 100490 44
2012-05-21 09:33 51°10.21 2°39.751 11.4 260 9.1 100510 43
2012-05-21 09:34 51°10.187 2°39.732 10.7 265 9.2 100500 44
2012-05-21 09:35 51°10.164 2°39.712 10.5 259 9.3 100490 44
2012-05-21 09:36 51°10.142 2°39.702 11.4 255 9.3 100480 44
2012-05-21 09:37 51°10.128 2°39.709 6.2 248 9.4 100480 44
2012-05-21 09:38 51°10.107 2°39.699 10.7 251 9.3 100460 43
2012-05-21 09:39 51°10.082 2°39.683 5.7 253 9.2 100480 43
2012-05-21 09:40 51°10.058 2°39.664 10.9 260 9.2 100470 43
2012-05-21 09:41 51°10.035 2°39.645 9.2 264 9.2 100480 44
2012-05-21 09:42 51°10.012 2°39.625 11 264 9.1 100500 44
2012-05-21 09:43 51°9.995 2°39.66 11.2 248 9.1 100490 44
2012-05-21 09:44 51°10.052 2°39.814 15.6 315 9.2 100440 43
2012-05-21 09:45 51°10.176 2°39.886 17.1 322 9.2 100440 43
2012-05-21 09:46 51°10.28 2°40.011 10.6 26 9.2 100420 44
2012-05-21 09:47 51°10.333 2°40.211 13.8 20 9.2 100430 44
2012-05-21 09:48 51°10.467 2°40.288 13.3 323 9.2 100440 44
2012-05-21 09:49 51°10.585 2°40.276 9.9 345 9.2 100460 43
2012-05-21 09:50 51°10.586 2°40.19 8.3 12 9.1 100460 43
2012-05-21 09:51 51°10.568 2°40.135 7.8 14 9.1 100480 43
2012-05-21 09:52 51°10.527 2°40.06 12.2 28 9.2 100490 43
2012-05-21 09:53 51°10.434 2°39.923 8.4 26 9.1 100500 44
2012-05-21 09:54 51°10.376 2°39.785 7.4 17 9.1 100500 44
2012-05-21 09:55 51°10.346 2°39.69 13.6 16 9.1 100500 43
2012-05-21 09:56 51°10.315 2°39.614 8.7 23 9.1 100490 43
2012-05-21 09:57 51°10.282 2°39.539 12.2 23 9.1 100500 43
2012-05-21 09:58 51°10.251 2°39.457 10.3 22 9.2 100500 44
2012-05-21 09:59 51°10.213 2°39.381 9.3 27 9.1 100490 44
2012-05-21 10:00 51°10.175 2°39.306 8.6 29 9.1 100500 44
2012-05-21 10:01 51°10.137 2°39.23 10.8 25 9.1 100500 44
2012-05-21 10:02 51°10.101 2°39.155 9.4 26 9.1 100510 44
2012-05-21 10:03 51°10.067 2°39.075 8.5 32 9.2 100500 44
2012-05-21 10:04 51°10.031 2°39.002 8.4 26 9.2 100500 44
2012-05-21 10:05 51°9.997 2°38.926 8.4 25 9.2 100510 44
2012-05-21 10:06 51°9.961 2°38.853 12.1 25 9.2 100500 44
2012-05-21 10:07 51°9.926 2°38.778 8.3 26 9.2 100510 44
2012-05-21 10:08 51°9.892 2°38.704 12.3 25 9.1 100500 44
2012-05-21 10:09 51°9.857 2°38.631 9.8 28 9.1 100510 44
2012-05-21 10:10 51°9.823 2°38.557 9.3 27 9.1 100520 44
2012-05-21 10:11 51°9.79 2°38.484 7.2 33 9.1 100510 44
2012-05-21 10:12 51°9.758 2°38.409 10.9 27 9.2 100490 45
2012-05-21 10:13 51°9.728 2°38.335 7.8 26 9.2 100500 43
2012-05-21 10:14 51°9.694 2°38.263 8.1 25 9.2 100510 44
2012-05-21 10:15 51°9.667 2°38.189 4.9 22 9.1 100500 43
2012-05-21 10:16 51°9.645 2°38.117 7 21 9.2 100520 44
2012-05-21 10:17 51°9.624 2°38.043 15.9 19 9.2 100500 43
2012-05-21 10:18 51°9.604 2°37.974 15.4 15 9.2 100510 43
2012-05-21 10:19 51°9.583 2°37.905 10.7 16 9.1 100500 44
2012-05-21 10:20 51°9.562 2°37.834 7.4 18 9.1 100530 43
2012-05-21 10:21 51°9.537 2°37.766 11.5 24 9.1 100510 44
2012-05-21 10:22 51°9.513 2°37.694 11.9 23 9.1 100520 44
2012-05-21 10:23 51°9.488 2°37.623 8.9 24 9.2 100510 45
2012-05-21 10:24 51°9.468 2°37.549 10.3 16 9.2 100500 44
2012-05-21 10:25 51°9.449 2°37.478 9.9 13 9.3 100510 43
2012-05-21 10:26 51°9.435 2°37.391 9 11 9.3 100500 44
2012-05-21 10:27 51°9.42 2°37.305 12.5 12 9.2 100490 44
2012-05-21 10:28 51°9.404 2°37.218 7.8 11 9.2 100500 45
2012-05-21 10:29 51°9.387 2°37.129 13.8 16 9.1 100520 43
2012-05-21 10:30 51°9.381 2°37.109 5.5 12 9.2 100500 43
2012-05-21 10:31 51°9.385 2°36.918 13.3 1 9.2 100480 44
2012-05-21 10:32 51°9.385 2°36.837 13.6 15 9.1 100470 45
2012-05-21 10:33 51°9.383 2°36.753 8.5 6 9.1 100480 44
2012-05-21 10:34 51°9.386 2°36.671 12.4 4 9.1 100470 45
2012-05-21 10:35 51°9.387 2°36.588 11.5 7 9.1 100480 43
2012-05-21 10:36 51°9.39 2°36.512 11.4 6 9.1 100480 45
2012-05-21 10:37 51°9.403 2°36.442 9.7 353 9.2 100480 44
2012-05-21 10:38 51°9.41 2°36.396 13.5 2 9.2 100480 44
2012-05-21 10:39 51°9.403 2°36.376 7 5 9.1 100490 43
2012-05-21 10:40 51°9.389 2°36.377 5.1 15 9.1 100480 44
2012-05-21 10:41 51°9.375 2°36.382 13.2 26 9.1 100470 44
2012-05-21 10:42 51°9.36 2°36.382 8.5 22 9.1 100480 43
2012-05-21 10:43 51°9.331 2°36.276 8.5 17 9.2 100480 43
2012-05-21 10:44 51°9.314 2°36.132 9.9 11 9.1 100470 44
2012-05-21 10:45 51°9.305 2°36.058 7.7 17 9.1 100470 44
2012-05-21 10:46 51°9.299 2°36.028 10.2 11 9.1 100470 44
2012-05-21 10:47 51°9.29 2°36.021 11.2 14 9.1 100470 43
2012-05-21 10:48 51°9.28 2°36.025 13.1 14 9.1 100450 42
2012-05-21 10:49 51°9.268 2°36.041 11.9 25 9.1 100460 44
2012-05-21 10:50 51°9.258 2°36.061 8 28 9.2 100460 45
2012-05-21 10:51 51°9.249 2°36.033 11.9 7 9.1 100460 45
2012-05-21 10:52 51°9.26 2°35.991 15.1 349 9.1 100450 44
2012-05-21 10:53 51°28.55 2°40.029 -999 55 9.2 100490 43
2012-05-21 10:54 51°9.3 2°36.005 10.7 22 9.2 100450 43
2012-05-21 10:55 51°9.3 2°36.156 13.3 21 9.2 100450 44
2012-05-21 10:56 51°9.339 2°36.417 10.2 25 9.2 100420 43
2012-05-21 10:57 51°9.401 2°36.683 11.1 23 9.2 100420 44
2012-05-21 10:58 51°9.464 2°36.95 4.4 24 9.2 100400 44
2012-05-21 10:59 51°9.532 2°37.221 0.7 23 9.2 100420 44
2012-05-21 11:00 51°9.597 2°37.495 0.6 24 9.2 100390 44
2012-05-21 11:01 51°9.662 2°37.776 2.4 23 9.3 100410 44
2012-05-21 11:02 51°9.728 2°38.054 1.9 24 9.2 100450 43
2012-05-21 11:03 51°9.791 2°38.336 2.4 26 9 100410 44
2012-05-21 11:04 51°9.853 2°38.619 3.3 26 9 100420 44
2012-05-21 11:05 51°9.916 2°38.9 14 21 9 100410 44
2012-05-21 11:06 51°9.98 2°39.187 15.8 23 9.1 100410 44
2012-05-21 11:07 51°10.041 2°39.471 14.9 23 9 100420 44
2012-05-21 11:08 51°10.105 2°39.759 1.1 24 9 100390 44
2012-05-21 11:09 51°10.167 2°40.044 2.2 24 9.1 100400 44
2012-05-21 11:10 51°10.23 2°40.332 13.9 24 9 100400 43
2012-05-21 11:11 51°10.294 2°40.623 6.3 19 9 100400 44
2012-05-21 11:12 51°10.359 2°40.909 12.8 25 9 100390 44
2012-05-21 11:13 51°10.424 2°41.197 11.6 21 9.1 100420 45
2012-05-21 11:14 51°10.49 2°41.485 6.2 25 9 100400 44
2012-05-21 11:15 51°10.554 2°41.775 6.3 24 9 100390 44
2012-05-21 11:16 51°10.617 2°42.064 13 23 9 100410 44
2012-05-21 11:17 51°10.681 2°42.357 14.5 23 9 100400 43
2012-05-21 11:18 51°10.745 2°42.65 1.9 23 9 100400 43
2012-05-21 11:19 51°10.812 2°42.944 1.1 23 9.1 100410 44
2012-05-21 11:20 51°10.878 2°43.24 16.3 22 9.1 100390 44
2012-05-21 11:21 51°10.947 2°43.534 2 26 9.1 100420 44
2012-05-21 11:22 51°11.013 2°43.828 4.4 24 9.1 100390 44
2012-05-21 11:23 51°11.083 2°44.122 0.8 24 9 100400 44
2012-05-21 11:24 51°11.149 2°44.415 0.8 24 9.1 100390 44
2012-05-21 11:25 51°11.216 2°44.707 12.7 21 9 100390 44
2012-05-21 11:26 51°11.285 2°44.999 6.9 22 9.1 100410 43
2012-05-21 11:27 51°11.351 2°45.297 6.8 24 9.1 100420 44
2012-05-21 11:28 51°11.421 2°45.593 1.9 24 9.1 100400 44
2012-05-21 11:29 51°11.491 2°45.891 0.8 24 9.1 100390 44
2012-05-21 11:30 51°11.559 2°46.191 4.4 24 9.1 100400 44
2012-05-21 11:31 51°11.63 2°46.481 4.4 24 9.1 100400 44
2012-05-21 11:32 51°11.699 2°46.783 1.9 23 9.1 100400 44
2012-05-21 11:33 51°11.765 2°47.084 1.2 24 9.1 100380 44
2012-05-21 11:34 51°11.843 2°47.375 4.4 24 9.1 100380 43
2012-05-21 11:35 51°11.941 2°47.644 0.5 24 9.1 100400 44
2012-05-21 11:36 51°12.037 2°47.916 1.5 24 9.1 100380 44
2012-05-21 11:37 51°12.131 2°48.19 5.6 24 9.1 100400 43
2012-05-21 11:38 51°12.226 2°48.465 3.4 23 9 100370 44
2012-05-21 11:39 51°12.322 2°48.743 13.8 22 9 100400 44
2012-05-21 11:40 51°12.419 2°49.019 0.6 24 9 100390 44
2012-05-21 11:41 51°12.51 2°49.295 2.3 24 9.1 100420 44
2012-05-21 11:42 51°12.606 2°49.573 15 21 9 100390 42
2012-05-21 11:43 51°12.704 2°49.847 0.3 23 9 100370 43
2012-05-21 11:44 51°12.802 2°50.124 0.5 23 9.1 100390 44
2012-05-21 11:45 51°12.898 2°50.405 1.9 23 9 100380 45
2012-05-21 11:46 51°12.999 2°50.685 4.8 21 9.1 100390 44
2012-05-21 11:47 51°13.097 2°50.961 0.3 23 9 100370 44
2012-05-21 11:48 51°13.192 2°51.236 2.2 26 9 100380 44
2012-05-21 11:49 51°13.272 2°51.458 12.8 24 9 100390 44
2012-05-21 11:50 51°13.288 2°51.526 12 19 9 100420 44
2012-05-21 11:51 51°13.286 2°51.563 4.2 264 9 100440 43
2012-05-21 11:52 51°13.285 2°51.6 7.5 270 9.1 100460 44
2012-05-21 11:53 51°13.283 2°51.639 6.8 269 9 100450 44
2012-05-21 11:54 51°13.282 2°51.68 7.5 265 9 100440 43
2012-05-21 11:55 51°13.281 2°51.72 10.6 260 9 100450 44
2012-05-21 11:56 51°13.278 2°51.761 10.9 261 9.1 100440 45
2012-05-21 11:57 51°13.276 2°51.801 7.7 264 9.1 100460 44
2012-05-21 11:58 51°13.276 2°51.842 10 256 9.1 100430 44
2012-05-21 11:59 51°13.276 2°51.885 12.5 261 9.1 100440 44
2012-05-21 12:00 51°13.276 2°51.924 11.2 260 9 100450 45
2012-05-21 12:01 51°13.276 2°51.967 13.3 256 9 100450 44
2012-05-21 12:02 51°13.275 2°52.008 14.9 256 9.1 100430 44
2012-05-21 12:03 51°13.273 2°52.046 9.1 258 9.1 100450 44
2012-05-21 12:04 51°13.271 2°52.083 8.8 265 9.1 100470 44
2012-05-21 12:05 51°13.27 2°52.121 9.6 263 9.1 100450 43
2012-05-21 12:06 51°13.27 2°52.159 10.3 262 9 100460 43
2012-05-21 12:07 51°13.271 2°52.198 9.2 263 9.1 100440 44
2012-05-21 12:08 51°13.271 2°52.237 4.3 265 9 100440 45
2012-05-21 12:09 51°13.271 2°52.275 7.8 263 9 100460 43
2012-05-21 12:10 51°13.279 2°52.343 10.8 24 9 100450 43
2012-05-21 12:11 51°13.32 2°52.418 7.7 325 9 100410 43
2012-05-21 12:12 51°13.379 2°52.392 16.3 352 9 100410 44
2012-05-21 12:13 51°13.422 2°52.177 5.9 -999 9 100410 44
2012-05-21 12:14 51°13.423 2°51.912 15.4 1 9 100400 44
2012-05-21 12:15 51°13.42 2°51.644 6.3 3 9 100400 44
2012-05-21 12:16 51°13.398 2°51.386 12 15 9 100390 43
2012-05-21 12:17 51°13.317 2°51.2 7.5 33 9 100420 44
2012-05-21 12:18 51°13.266 2°51.148 7.2 31 9.1 100420 45
2012-05-21 12:19 51°13.236 2°51.129 8.2 34 9.1 100440 44
2012-05-21 12:20 51°13.22 2°51.127 9.5 31 9.1 100450 44
2012-05-21 12:21 51°13.216 2°51.137 10.3 26 9.1 100440 45
2012-05-21 12:22 51°13.217 2°51.159 11.1 23 9.1 100440 43
2012-05-21 12:23 51°13.207 2°51.146 8.8 34 9.1 100430 45
2012-05-21 12:24 51°13.152 2°51.132 9.2 38 9.1 100450 43
2012-05-21 12:25 51°13.119 2°51.134 7.8 35 9.1 100440 44
2012-05-21 12:26 51°13.105 2°51.145 10.1 27 9.2 100440 43
2012-05-21 12:27 51°13.1 2°51.161 10.3 26 9.1 100440 44
2012-05-21 12:28 51°13.072 2°51.116 8.1 22 9.1 100440 43
2012-05-21 12:29 51°12.998 2°51.043 8.3 28 9.1 100450 43
2012-05-21 12:30 51°12.954 2°50.953 8.1 16 9.1 100430 44
2012-05-21 12:31 51°12.929 2°50.87 11.6 19 9.1 100430 44
2012-05-21 12:32 51°12.909 2°50.802 9.7 22 9.1 100440 44
2012-05-21 12:33 51°12.882 2°50.748 9 28 9.1 100430 44
2012-05-21 12:34 51°12.833 2°50.714 11.7 31 9.1 100430 45
2012-05-21 12:35 51°12.784 2°50.681 9.7 34 9.1 100420 44
2012-05-21 12:36 51°12.737 2°50.647 9.6 33 9.2 100430 44
2012-05-21 12:37 51°12.691 2°50.614 10.1 32 9.1 100440 44
2012-05-21 12:38 51°12.645 2°50.58 8 33 9.2 100430 43
2012-05-21 12:39 51°12.6 2°50.545 9.2 33 9.2 100440 43
2012-05-21 12:40 51°12.561 2°50.502 9.5 25 9.2 100430 45
2012-05-21 12:41 51°12.532 2°50.45 10.1 23 9.3 100430 44
2012-05-21 12:42 51°12.507 2°50.39 8.4 16 9.2 100430 44
2012-05-21 12:43 51°12.483 2°50.333 8.7 24 9.2 100430 44
2012-05-21 12:44 51°12.457 2°50.274 8.2 24 9.2 100430 45
2012-05-21 12:45 51°12.43 2°50.217 11.1 25 9.1 100430 43
2012-05-21 12:46 51°12.401 2°50.162 9.8 23 9.2 100440 42
2012-05-21 12:47 51°12.372 2°50.106 10.3 21 9.2 100430 44
2012-05-21 12:48 51°12.341 2°50.054 10.3 26 9.2 100440 44
2012-05-21 12:49 51°12.311 2°50.004 10.9 24 9.1 100440 44
2012-05-21 12:50 51°12.281 2°49.949 8.7 27 9.1 100440 44
2012-05-21 12:51 51°12.253 2°49.893 10.6 28 9.2 100440 44
2012-05-21 12:52 51°12.225 2°49.839 10.7 22 9.2 100440 43
2012-05-21 12:53 51°12.195 2°49.785 6.9 21 9.2 100450 44
2012-05-21 12:54 51°12.166 2°49.732 7.1 24 9.2 100430 42
2012-05-21 12:55 51°12.138 2°49.677 8.7 18 9.2 100420 44
2012-05-21 12:56 51°12.11 2°49.621 8.5 24 9.3 100430 44
2012-05-21 12:57 51°12.08 2°49.57 10 26 9.3 100450 43
2012-05-21 12:58 51°12.049 2°49.518 12 21 9.2 100450 43
2012-05-21 12:59 51°12.019 2°49.464 10.3 22 9.2 100440 43
2012-05-21 13:00 51°11.99 2°49.409 10.7 23 9.2 100450 44
2012-05-21 13:01 51°11.967 2°49.351 8.2 17 9.2 100440 44
2012-05-21 13:02 51°11.96 2°49.284 11.2 17 9.2 100440 43
2012-05-21 13:03 51°11.958 2°49.217 8.6 15 9.2 100460 43
2012-05-21 13:04 51°11.958 2°49.148 12.7 12 9.2 100450 43
2012-05-21 13:05 51°11.964 2°49.083 10.2 13 9.2 100450 44
2012-05-21 13:06 51°11.974 2°49.022 6.2 9 9.2 100450 44
2012-05-21 13:07 51°11.99 2°48.967 10.1 3 9.2 100440 44
2012-05-21 13:08 51°12.013 2°48.912 8.4 355 9.2 100420 44
2012-05-21 13:09 51°12.044 2°48.864 5.6 351 9.2 100420 43
2012-05-21 13:10 51°12.078 2°48.84 10.1 346 9.2 100430 42
2012-05-21 13:11 51°12.11 2°48.837 9.3 340 9.2 100440 44
2012-05-21 13:12 51°12.117 2°48.858 10.4 346 9.2 100420 44
2012-05-21 13:13 51°12.114 2°48.896 9.9 6 9.2 100420 44
2012-05-21 13:14 51°12.11 2°48.943 8.8 17 9.3 100430 43
2012-05-21 13:15 51°12.113 2°48.989 10 29 9.2 100430 44
2012-05-21 13:16 51°12.115 2°49.034 8.9 24 9.3 100430 44
2012-05-21 13:17 51°12.113 2°49.041 10.7 7 9.3 100420 44
2012-05-21 13:18 51°12.137 2°49.016 9.2 341 9.2 100420 43
2012-05-21 13:19 51°12.195 2°49.054 13.8 21 9.2 100420 43
2012-05-21 13:20 51°12.24 2°49.223 7.3 26 9.3 100430 44
2012-05-21 13:21 51°12.328 2°49.479 10.8 25 9.3 100420 44
2012-05-21 13:22 51°12.422 2°49.744 16.4 20 9.3 100430 43
2012-05-21 13:23 51°12.516 2°50.013 9.6 26 9.4 100400 44
2012-05-21 13:24 51°12.617 2°50.277 6.7 24 9.4 100390 43
2012-05-21 13:25 51°12.726 2°50.526 7.6 25 9.3 100420 44
2012-05-21 13:26 51°12.834 2°50.775 13.3 25 9.4 100410 42
2012-05-21 13:27 51°12.942 2°51.033 3.5 24 9.4 100420 44
2012-05-21 13:28 51°13.046 2°51.289 12.8 21 9.4 100410 44
2012-05-21 13:29 51°13.15 2°51.539 11.9 22 9.4 100420 44
2012-05-21 13:30 51°13.255 2°51.791 13.1 19 9.4 100390 44
2012-05-21 13:31 51°13.364 2°52.037 6.7 23 9.4 100380 44
2012-05-21 13:32 51°13.471 2°52.286 6.8 21 9.4 100420 44
2012-05-21 13:33 51°13.578 2°52.543 5.8 26 9.4 100390 44
2012-05-21 13:34 51°13.695 2°52.779 14.1 22 9.5 100400 42
2012-05-21 13:35 51°13.826 2°52.994 6.1 23 9.5 100430 44
2012-05-21 13:36 51°13.94 2°53.222 4.4 24 9.5 100400 43
2012-05-21 13:37 51°14.057 2°53.451 6 25 9.4 100400 44
2012-05-21 13:38 51°14.185 2°53.667 6.6 25 9.4 100400 43
2012-05-21 13:39 51°14.311 2°53.879 13.7 25 9.4 100400 43
2012-05-21 13:40 51°14.436 2°54.086 1.9 24 9.4 100410 43
2012-05-21 13:41 51°14.55 2°54.317 3.2 24 9.4 100400 43
2012-05-21 13:42 51°14.628 2°54.587 10.2 252 9.4 100410 42
2012-05-21 13:43 51°14.59 2°54.879 5.9 268 9.4 100470 44
2012-05-21 13:44 51°14.459 2°55.063 2.8 28 9.4 100460 42
2012-05-21 13:45 51°14.335 2°55.197 6.2 19 9.5 100470 43
2012-05-21 13:46 51°14.239 2°55.304 5.5 26 9.4 100480 44
2012-05-21 13:47 51°14.151 2°55.391 6.4 27 9.4 100470 42
2012-05-21 13:48 51°14.069 2°55.454 5.2 24 9.4 100470 42
2012-05-21 13:49 51°13.995 2°55.506 4.9 22 9.5 100470 45
2012-05-21 13:50 51°13.926 2°55.55 2.9 25 9.8 100470 44
2012-05-21 13:51 51°13.859 2°55.597 5.4 23 10 100470 45
2012-05-21 13:52 51°13.794 2°55.652 5.2 18 9.7 100470 43
2012-05-21 13:53 51°13.729 2°55.728 7.5 26 9.7 100470 42
2012-05-21 13:54 51°13.685 2°55.834 5.4 270 9.6 100460 43
2012-05-21 13:55 51°13.654 2°55.932 4.8 267 9.6 100460 44
2012-05-21 13:56 51°13.64 2°56.004 7.4 268 9.5 100470 44
2012-05-21 13:57 51°13.635 2°56.019 7.7 23 9.4 100470 43
2012-05-21 13:58 51°13.636 2°56.019 9.5 24 9.4 100470 43